Home   Weather   Arusha   Past weeks
Flag for Tanzania

Past Weather in Arusha, Tanzania — Yesterday and Last 2 Weeks

Now
84 °F

Scattered clouds.


Feels Like: 85 °F
Forecast: 79 / 60 °F
Wind: 12 mph from East

Location: Kilimanjaro Airport

Current Time: Oct 21, 2019 at 6:42:48 pm

Latest Report: Oct 21, 2019 at 5:00 pm


Visibility: N/A

Pressure: 29.95 "Hg (25.66 "Hg at 1366m altitude)

Humidity: 48%

Dew Point: 63 °F

Location of ArushaLocation

Past Weather in Arusha — Graph

°F

Arusha Temperature Yesterday

Maximum temperature yesterday: 100 °F (at 4:00 pm)
Minimum temperature yesterday: 66 °F (at 3:00 am)
Average temperature yesterday: 74 °F

High & Low Weather Summary for the Past Weeks

 TemperatureHumidityPressure
High100 °F (Oct 20, 4:00 pm)100% (Oct 9, 5:00 pm)32.52 "Hg (Oct 9, 5:00 pm)
Low63 °F (Oct 13, 4:00 am)31% (Oct 20, 4:00 pm)29.92 "Hg (Oct 11, 4:00 pm)
Average73 °F79%30.06 "Hg
* Reported Oct 6 6:00 pm — Oct 21 5:00 pm, Arusha. Weather by CustomWeather, © 2019

Note: Actual official high and low records may vary slightly from our data, if they occured in-between our weather recording intervals... More about our weather records

Advertising

Arusha Weather History for the Previous 24 Hours

Scroll right to see more
 ConditionsComfort  
Time TempWeatherWind HumidityBarometerVisibility
5:00 pm
Mon, Oct 21
84 °FScattered clouds.12 mph48%29.95 "HgN/A
4:00 pm86 °FScattered clouds.14 mph43%29.95 "HgN/A
3:00 pm82 °FScattered clouds.12 mph62%29.98 "HgN/A
2:00 pm81 °FScattered clouds.9 mph66%29.98 "HgN/A
1:00 pm79 °FPartly sunny.7 mph74%30.01 "HgN/A
12:00 pm79 °FPartly sunny.No wind70%30.07 "HgN/A
11:00 am75 °FPartly sunny.No wind74%30.09 "HgN/A
10:00 am72 °FPartly sunny.No wind83%30.09 "HgN/A
9:00 am68 °FPartly sunny.No wind94%30.12 "HgN/A
8:00 am68 °FPartly sunny.6 mph94%30.09 "HgN/A
7:00 am68 °FPartly sunny.No wind94%30.09 "HgN/A
6:00 am68 °FPassing clouds.No wind94%30.09 "HgN/A
5:00 am68 °FPassing clouds.No wind94%30.07 "HgN/A
4:00 am68 °FPassing clouds.6 mph94%30.07 "HgN/A
2:00 am70 °FPassing clouds.No wind88%30.07 "HgN/A
12:00 am70 °FPassing clouds.6 mph88%30.09 "HgN/A
11:00 pm
Sun, Oct 20
72 °FPassing clouds.10 mph88%30.09 "HgN/A
10:00 pm72 °FMild.12 mph88%30.07 "HgN/A
9:00 pm72 °FPassing clouds.6 mph78%30.04 "HgN/A
8:00 pm75 °FPassing clouds.6 mph78%30.01 "HgN/A
7:00 pm77 °FPassing clouds.6 mph74%32.52 "HgN/A
6:00 pm81 °FPassing clouds.14 mph62%29.98 "HgN/A
Weather by CustomWeather, © 2019

See weather overview